This is the latest recevied weather packets stored in our database for station/object M0TUM-1. If no packets are shown the sender has not sent any weather packets the latest 10 day(s).
| Time | Temp. | Humidity | Pressure | Rain* | Wind** | Luminosity | Snow |
|---|---|---|---|---|---|---|---|
| 1778071302 | 10° C | 83% | 1012.8 hPa | 0 mm | - | 41 W/m² | - |
| 1778071000 | 10° C | 83% | 1012.9 hPa | 0 mm | - | 53 W/m² | - |
| 1778070699 | 10.56° C | 83% | 1012.8 hPa | 0 mm | - | 88 W/m² | - |
| 1778070395 | 10.56° C | 84% | 1012.6 hPa | 0 mm | - | 140 W/m² | - |
| 1778070093 | 10.56° C | 84% | 1012.8 hPa | 0 mm | - | 131 W/m² | - |
| 1778069790 | 10° C | 85% | 1012.7 hPa | 0 mm | - | 147 W/m² | - |
| 1778069486 | 10° C | 85% | 1013.1 hPa | 0 mm | - | 170 W/m² | - |
| 1778069185 | 10° C | 85% | 1012.8 hPa | 0 mm | - | 175 W/m² | - |
| 1778068881 | 10° C | 86% | 1012.7 hPa | 0 mm | - | 171 W/m² | - |
| 1778068580 | 10° C | 86% | 1012.7 hPa | 0 mm | - | 172 W/m² | - |
| 1778068278 | 10° C | 86% | 1012.7 hPa | 0 mm | - | 161 W/m² | - |
| 1778067975 | 9.44° C | 86% | 1012.6 hPa | 0 mm | - | 131 W/m² | - |
| 1778067673 | 9.44° C | 87% | 1012.9 hPa | 0 mm | - | 104 W/m² | - |
| 1778067371 | 9.44° C | 87% | 1012.9 hPa | 0 mm | - | 83 W/m² | - |
| 1778067068 | 9.44° C | 87% | 1013 hPa | 1.27 mm | - | 90 W/m² | - |
| 1778066764 | 9.44° C | 87% | 1012.9 hPa | 1.27 mm | - | 83 W/m² | - |
| 1778066462 | 9.44° C | 87% | 1012.8 hPa | 0 mm | - | 118 W/m² | - |
| 1778066159 | 9.44° C | 87% | 1012.8 hPa | 0 mm | - | 117 W/m² | - |
| 1778065856 | 9.44° C | 87% | 1012.7 hPa | 1.78 mm | - | 96 W/m² | - |
| 1778065554 | 10° C | 87% | 1012.7 hPa | 3.05 mm | - | 111 W/m² | - |
| 1778065251 | 10° C | 87% | 1012.7 hPa | 3.05 mm | - | 106 W/m² | - |
| 1778064947 | 9.44° C | 87% | 1012.9 hPa | 3.05 mm | - | 129 W/m² | - |
| 1778064644 | 8.89° C | 87% | 1013 hPa | 1.27 mm | - | 120 W/m² | - |
| 1778064343 | 9.44° C | 87% | 1012.7 hPa | 1.78 mm | - | 109 W/m² | - |
| 1778064040 | 9.44° C | 87% | 1012.9 hPa | 1.78 mm | - | 124 W/m² | - |
* Rain latest hour (hover to see other rain measurements)
** Current wind speed in m/s (hover to see current wind gust speed)